Wetterdaten: Mittwoch, 01.10.2014
Datum Zeit Temperatur Luftfeuchte Luftdruck Regen Wind Richtung Richtung Taupunkt Windchill Windben
01.10.2014 00:00 13,1 C 94 % 1028,5 hPa 0,0 l/m 0,0 km/h (0 Bft) S-SO 157 12,2 C 22,8 C 0,0 km/h (0 Bft)
01.10.2014 00:10 13,0 C 94 % 1028,3 hPa 0,0 l/m 0,0 km/h (0 Bft) S-SO 157 12,1 C 22,8 C 0,0 km/h (0 Bft)
01.10.2014 00:20 13,0 C 94 % 1028,3 hPa 0,0 l/m 0,0 km/h (0 Bft) S-SO 157 12,1 C 22,8 C 0,0 km/h (0 Bft)
01.10.2014 00:30 12,9 C 95 % 1028,2 hPa 0,0 l/m 0,0 km/h (0 Bft) S-SO 157 12,1 C 22,8 C 0,0 km/h (0 Bft)
01.10.2014 00:40 12,9 C 95 % 1028,2 hPa 0,0 l/m 0,0 km/h (0 Bft) S-SO 157 12,1 C 22,8 C 0,0 km/h (0 Bft)
01.10.2014 00:50 12,9 C 95 % 1028,4 hPa 0,0 l/m 0,0 km/h (0 Bft) S-SO 157 12,1 C 22,8 C 0,0 km/h (0 Bft)
01.10.2014 01:00 12,9 C 95 % 1028,4 hPa 0,0 l/m 0,0 km/h (0 Bft) S-SO 157 12,1 C 22,8 C 0,0 km/h (0 Bft)
01.10.2014 01:10 12,9 C 95 % 1028,3 hPa 0,0 l/m 0,0 km/h (0 Bft) S-SO 157 12,1 C 22,8 C 0,0 km/h (0 Bft)
01.10.2014 01:20 12,9 C 95 % 1028,3 hPa 0,0 l/m 0,0 km/h (0 Bft) S-SO 157 12,1 C 22,8 C 0,0 km/h (0 Bft)
01.10.2014 01:30 12,9 C 95 % 1028,2 hPa 0,0 l/m 0,0 km/h (0 Bft) S-SO 157 12,1 C 22,8 C 0,0 km/h (0 Bft)
01.10.2014 01:40 12,8 C 95 % 1028,2 hPa 0,0 l/m 0,0 km/h (0 Bft) S-SO 157 12,0 C 22,8 C 0,0 km/h (0 Bft)
01.10.2014 01:50 12,8 C 95 % 1028,2 hPa 0,0 l/m 0,0 km/h (0 Bft) S-SO 157 12,0 C 22,8 C 0,0 km/h (0 Bft)
01.10.2014 02:00 12,8 C 95 % 1028,2 hPa 0,0 l/m 0,0 km/h (0 Bft) S-SO 157 12,0 C 22,8 C 0,0 km/h (0 Bft)
01.10.2014 02:08 12,8 C 95 % 1028,1 hPa 0,0 l/m 0,0 km/h (0 Bft) S-SO 157 12,0 C 22,8 C 0,0 km/h (0 Bft)
01.10.2014 02:20 12,6 C 95 % 1027,9 hPa 0,0 l/m 0,0 km/h (0 Bft) S-SO 157 11,8 C 22,8 C 0,0 km/h (0 Bft)
01.10.2014 02:30 12,5 C 95 % 1027,9 hPa 0,0 l/m 0,0 km/h (0 Bft) S-SO 157 11,7 C 22,8 C 0,0 km/h (0 Bft)
01.10.2014 02:40 12,5 C 95 % 1027,9 hPa 0,0 l/m 0,0 km/h (0 Bft) S-SO 157 11,7 C 22,8 C 0,0 km/h (0 Bft)
01.10.2014 02:50 12,4 C 95 % 1028,1 hPa 0,0 l/m 0,0 km/h (0 Bft) S-SO 157 11,6 C 22,8 C 0,0 km/h (0 Bft)
01.10.2014 03:00 12,3 C 95 % 1028,1 hPa 0,0 l/m 0,0 km/h (0 Bft) S-SO 157 11,5 C 22,8 C 0,0 km/h (0 Bft)
01.10.2014 03:10 12,3 C 95 % 1027,9 hPa 0,0 l/m 0,0 km/h (0 Bft) S-SO 157 11,5 C 22,8 C 0,0 km/h (0 Bft)
01.10.2014 03:20 12,3 C 95 % 1027,9 hPa 0,0 l/m 0,0 km/h (0 Bft) S-SO 157 11,5 C 22,8 C 0,0 km/h (0 Bft)
01.10.2014 03:30 12,4 C 95 % 1027,8 hPa 0,0 l/m 0,0 km/h (0 Bft) S-SO 157 11,6 C 22,8 C 0,0 km/h (0 Bft)
01.10.2014 03:40 12,5 C 95 % 1027,8 hPa 0,0 l/m 0,0 km/h (0 Bft) S-SO 157 11,7 C 22,8 C 0,0 km/h (0 Bft)
01.10.2014 03:50 12,5 C 95 % 1028,0 hPa 0,0 l/m 0,0 km/h (0 Bft) S-SO 157 11,7 C 22,8 C 0,0 km/h (0 Bft)
01.10.2014 04:00 12,4 C 95 % 1028,0 hPa 0,0 l/m 0,0 km/h (0 Bft) S-SO 157 11,6 C 22,8 C 0,0 km/h (0 Bft)
01.10.2014 04:10 12,4 C 95 % 1027,9 hPa 0,0 l/m 0,0 km/h (0 Bft) S-SO 157 11,6 C 22,8 C 0,0 km/h (0 Bft)
01.10.2014 04:20 12,3 C 95 % 1027,9 hPa 0,0 l/m 0,0 km/h (0 Bft) S-SO 157 11,5 C 22,8 C 0,0 km/h (0 Bft)
01.10.2014 04:30 12,3 C 95 % 1027,8 hPa 0,0 l/m 0,0 km/h (0 Bft) S-SO 157 11,5 C 22,8 C 0,0 km/h (0 Bft)
01.10.2014 04:40 12,2 C 95 % 1027,8 hPa 0,0 l/m 0,0 km/h (0 Bft) S-SO 157 11,4 C 22,8 C 0,0 km/h (0 Bft)
01.10.2014 04:50 12,2 C 95 % 1027,8 hPa 0,0 l/m 0,0 km/h (0 Bft) S-SO 157 11,4 C 22,8 C 0,0 km/h (0 Bft)
01.10.2014 05:00 12,2 C 95 % 1027,8 hPa 0,0 l/m 0,0 km/h (0 Bft) S-SO 157 11,4 C 22,8 C 0,0 km/h (0 Bft)
01.10.2014 05:08 12,1 C 95 % 1027,7 hPa 0,0 l/m 0,0 km/h (0 Bft) S-SO 157 11,3 C 22,8 C 0,0 km/h (0 Bft)
01.10.2014 05:20 12,0 C 95 % 1027,7 hPa 0,0 l/m 0,0 km/h (0 Bft) S-SO 157 11,2 C 22,8 C 0,0 km/h (0 Bft)
01.10.2014 05:30 12,0 C 95 % 1027,7 hPa 0,0 l/m 0,0 km/h (0 Bft) S-SO 157 11,2 C 22,8 C 0,0 km/h (0 Bft)
01.10.2014 05:40 12,2 C 95 % 1027,7 hPa 0,0 l/m 0,0 km/h (0 Bft) S-SO 157 11,4 C 22,8 C 0,0 km/h (0 Bft)
01.10.2014 05:50 12,0 C 95 % 1027,4 hPa 0,0 l/m 0,0 km/h (0 Bft) S-SO 157 11,2 C 22,8 C 0,0 km/h (0 Bft)
01.10.2014 06:00 12,0 C 95 % 1027,4 hPa 0,0 l/m 0,0 km/h (0 Bft) S-SO 157 11,2 C 22,8 C 0,0 km/h (0 Bft)
01.10.2014 06:10 12,0 C 95 % 1027,4 hPa 0,0 l/m 0,0 km/h (0 Bft) S-SO 157 11,2 C 22,8 C 0,0 km/h (0 Bft)
01.10.2014 06:20 12,0 C 95 % 1027,4 hPa 0,0 l/m 0,0 km/h (0 Bft) S-SO 157 11,2 C 22,8 C 0,0 km/h (0 Bft)
01.10.2014 06:30 11,9 C 96 % 1027,4 hPa 0,0 l/m 0,0 km/h (0 Bft) S-SO 157 11,3 C 22,8 C 0,0 km/h (0 Bft)
01.10.2014 06:40 11,8 C 96 % 1027,4 hPa 0,0 l/m 0,0 km/h (0 Bft) S-SO 157 11,2 C 22,8 C 0,0 km/h (0 Bft)
01.10.2014 06:50 11,9 C 96 % 1027,4 hPa 0,0 l/m 0,0 km/h (0 Bft) S-SO 157 11,3 C 22,8 C 0,0 km/h (0 Bft)
01.10.2014 07:00 11,8 C 96 % 1027,4 hPa 0,0 l/m 0,0 km/h (0 Bft) S-SO 157 11,2 C 22,8 C 0,0 km/h (0 Bft)
01.10.2014 07:10 11,8 C 96 % 1027,4 hPa 0,0 l/m 0,0 km/h (0 Bft) S-SO 157 11,2 C 22,8 C 0,0 km/h (0 Bft)
01.10.2014 07:20 11,8 C 96 % 1027,4 hPa 0,0 l/m 0,0 km/h (0 Bft) S-SO 157 11,2 C 22,8 C 0,0 km/h (0 Bft)
01.10.2014 07:30 11,8 C 96 % 1027,2 hPa 0,0 l/m 0,0 km/h (0 Bft) S-SO 157 11,2 C 22,8 C 0,0 km/h (0 Bft)
01.10.2014 07:40 11,8 C 96 % 1027,2 hPa 0,0 l/m 0,0 km/h (0 Bft) S-SO 157 11,2 C 22,8 C 0,0 km/h (0 Bft)
01.10.2014 07:50 11,8 C 96 % 1027,4 hPa 0,0 l/m 0,0 km/h (0 Bft) S-SO 157 11,2 C 22,8 C 0,0 km/h (0 Bft)
01.10.2014 08:00 11,8 C 96 % 1027,4 hPa 0,0 l/m 0,0 km/h (0 Bft) S-SO 157 11,2 C 22,8 C 0,0 km/h (0 Bft)
01.10.2014 08:08 11,9 C 96 % 1027,4 hPa 0,0 l/m 0,0 km/h (0 Bft) S-SO 157 11,3 C 22,8 C 0,0 km/h (0 Bft)
01.10.2014 08:20 12,2 C 95 % 1027,4 hPa 0,0 l/m 0,0 km/h (0 Bft) S-SO 157 11,4 C 22,8 C 0,0 km/h (0 Bft)
01.10.2014 08:30 12,2 C 95 % 1027,4 hPa 0,0 l/m 0,0 km/h (0 Bft) S-SO 157 11,4 C 22,8 C 0,0 km/h (0 Bft)
01.10.2014 08:40 12,3 C 96 % 1027,4 hPa 0,0 l/m 0,0 km/h (0 Bft) S-SO 157 11,7 C 22,8 C 0,0 km/h (0 Bft)
01.10.2014 08:50 12,5 C 96 % 1027,4 hPa 0,0 l/m 0,0 km/h (0 Bft) S-SO 157 11,9 C 22,8 C 0,0 km/h (0 Bft)
01.10.2014 09:00 12,6 C 96 % 1027,4 hPa 0,0 l/m 0,0 km/h (0 Bft) S-SO 157 12,0 C 22,8 C 0,0 km/h (0 Bft)
01.10.2014 09:10 12,7 C 96 % 1027,7 hPa 0,0 l/m 0,0 km/h (0 Bft) S-SO 157 12,1 C 22,8 C 0,0 km/h (0 Bft)
01.10.2014 09:20 12,6 C 96 % 1027,7 hPa 0,0 l/m 0,0 km/h (0 Bft) S-SO 157 12,0 C 22,8 C 0,0 km/h (0 Bft)
01.10.2014 09:30 12,6 C 96 % 1027,6 hPa 0,0 l/m 0,0 km/h (0 Bft) S-SO 157 12,0 C 22,8 C 0,0 km/h (0 Bft)
01.10.2014 09:40 12,6 C 96 % 1027,6 hPa 0,0 l/m 0,0 km/h (0 Bft) S-SO 157 12,0 C 22,8 C 0,0 km/h (0 Bft)
01.10.2014 09:50 12,7 C 96 % 1027,8 hPa 0,0 l/m 0,0 km/h (0 Bft) S-SO 157 12,1 C 22,8 C 0,0 km/h (0 Bft)
01.10.2014 10:00 12,9 C 96 % 1027,8 hPa 0,0 l/m 0,0 km/h (0 Bft) S-SO 157 12,3 C 22,8 C 0,0 km/h (0 Bft)
01.10.2014 10:10 13,2 C 95 % 1027,8 hPa 0,0 l/m 0,0 km/h (0 Bft) S-SO 157 12,4 C 22,8 C 0,0 km/h (0 Bft)
01.10.2014 10:20 13,3 C 95 % 1027,8 hPa 0,0 l/m 0,0 km/h (0 Bft) S-SO 157 12,5 C 22,8 C 0,0 km/h (0 Bft)
01.10.2014 10:30 13,6 C 95 % 1027,8 hPa 0,0 l/m 0,0 km/h (0 Bft) S-SO 157 12,8 C 22,8 C 0,0 km/h (0 Bft)
01.10.2014 10:40 13,6 C 95 % 1027,8 hPa 0,0 l/m 0,0 km/h (0 Bft) S-SO 157 12,8 C 22,8 C 0,0 km/h (0 Bft)
01.10.2014 10:50 13,6 C 95 % 1028,0 hPa 0,0 l/m 0,0 km/h (0 Bft) S-SO 157 12,8 C 22,8 C 0,0 km/h (0 Bft)
01.10.2014 10:58 13,6 C 95 % 1028,0 hPa 0,0 l/m 0,0 km/h (0 Bft) S-SO 157 12,8 C 22,8 C 0,0 km/h (0 Bft)
01.10.2014 11:00 13,5 C 95 % 1028,1 hPa 0,0 l/m 0,0 km/h (0 Bft) S-SO 157 12,7 C 22,8 C 0,0 km/h (0 Bft)
01.10.2014 11:10 13,4 C 95 % 1028,1 hPa 0,0 l/m 0,0 km/h (0 Bft) S-SO 157 12,6 C 22,8 C 0,0 km/h (0 Bft)
01.10.2014 11:20 13,6 C 95 % 1028,2 hPa 0,0 l/m 0,0 km/h (0 Bft) S-SO 157 12,8 C 22,8 C 0,0 km/h (0 Bft)
01.10.2014 11:30 13,6 C 95 % 1028,2 hPa 0,0 l/m 0,0 km/h (0 Bft) S-SO 157 12,8 C 22,8 C 0,0 km/h (0 Bft)
01.10.2014 11:40 13,7 C 95 % 1028,2 hPa 0,0 l/m 0,0 km/h (0 Bft) S-SO 157 12,9 C 22,8 C 0,0 km/h (0 Bft)
01.10.2014 11:50 13,8 C 95 % 1028,2 hPa 0,0 l/m 0,0 km/h (0 Bft) S-SO 157 13,0 C 22,8 C 0,0 km/h (0 Bft)
01.10.2014 12:00 13,7 C 95 % 1028,2 hPa 0,0 l/m 0,0 km/h (0 Bft) S-SO 157 12,9 C 22,8 C 0,0 km/h (0 Bft)
01.10.2014 12:10 13,6 C 95 % 1028,2 hPa 0,0 l/m 0,0 km/h (0 Bft) S-SO 157 12,8 C 22,8 C 0,0 km/h (0 Bft)
01.10.2014 12:20 13,5 C 95 % 1028,2 hPa 0,0 l/m 0,0 km/h (0 Bft) S-SO 157 12,7 C 22,8 C 0,0 km/h (0 Bft)
01.10.2014 12:30 13,5 C 95 % 1028,4 hPa 0,0 l/m 0,0 km/h (0 Bft) S-SO 157 12,7 C 22,8 C 0,0 km/h (0 Bft)
01.10.2014 12:40 13,4 C 95 % 1028,4 hPa 0,0 l/m 0,0 km/h (0 Bft) S-SO 157 12,6 C 22,8 C 0,0 km/h (0 Bft)
01.10.2014 12:50 13,4 C 95 % 1028,6 hPa 0,0 l/m 0,0 km/h (0 Bft) S-SO 157 12,6 C 22,8 C 0,0 km/h (0 Bft)
01.10.2014 13:00 13,5 C 95 % 1028,6 hPa 0,0 l/m 0,0 km/h (0 Bft) S-SO 157 12,7 C 22,8 C 0,0 km/h (0 Bft)
01.10.2014 13:10 13,3 C 95 % 1028,4 hPa 0,0 l/m 0,0 km/h (0 Bft) S-SO 157 12,5 C 22,8 C 0,0 km/h (0 Bft)
01.10.2014 13:20 13,2 C 95 % 1028,4 hPa 0,0 l/m 0,0 km/h (0 Bft) S-SO 157 12,4 C 22,8 C 0,0 km/h (0 Bft)
01.10.2014 13:30 12,9 C 95 % 1028,4 hPa 0,0 l/m 0,0 km/h (0 Bft) S-SO 157 12,1 C 22,8 C 0,0 km/h (0 Bft)
01.10.2014 13:40 13,1 C 95 % 1028,4 hPa 0,0 l/m 0,0 km/h (0 Bft) S-SO 157 12,3 C 22,8 C 0,0 km/h (0 Bft)
01.10.2014 13:50 13,4 C 95 % 1028,4 hPa 0,0 l/m 0,0 km/h (0 Bft) S-SO 157 12,6 C 22,8 C 0,0 km/h (0 Bft)
01.10.2014 13:58 13,5 C 95 % 1028,4 hPa 0,0 l/m 0,0 km/h (0 Bft) S-SO 157 12,7 C 22,8 C 0,0 km/h (0 Bft)
01.10.2014 14:00 13,9 C 95 % 1028,5 hPa 0,0 l/m 0,0 km/h (0 Bft) S-SO 157 13,1 C 22,8 C 0,0 km/h (0 Bft)
01.10.2014 14:10 13,8 C 95 % 1028,5 hPa 0,0 l/m 0,0 km/h (0 Bft) S-SO 157 13,0 C 22,8 C 0,0 km/h (0 Bft)
01.10.2014 14:20 13,8 C 95 % 1028,3 hPa 0,0 l/m 0,0 km/h (0 Bft) S-SO 157 13,0 C 22,8 C 0,0 km/h (0 Bft)
01.10.2014 14:30 13,8 C 95 % 1028,3 hPa 0,0 l/m 0,0 km/h (0 Bft) S-SO 157 13,0 C 22,8 C 0,0 km/h (0 Bft)
01.10.2014 14:40 14,2 C 94 % 1028,3 hPa 0,0 l/m 0,0 km/h (0 Bft) S-SO 157 13,2 C 22,8 C 0,0 km/h (0 Bft)
01.10.2014 14:50 14,6 C 94 % 1028,2 hPa 0,0 l/m 0,0 km/h (0 Bft) S-SO 157 13,6 C 22,8 C 0,0 km/h (0 Bft)
01.10.2014 15:00 14,6 C 94 % 1028,2 hPa 0,0 l/m 0,0 km/h (0 Bft) S-SO 157 13,6 C 22,8 C 0,0 km/h (0 Bft)
01.10.2014 15:10 15,4 C 94 % 1028,1 hPa 0,0 l/m 0,0 km/h (0 Bft) S-SO 157 14,4 C 22,8 C 0,0 km/h (0 Bft)
01.10.2014 15:20 15,4 C 94 % 1028,1 hPa 0,0 l/m 0,0 km/h (0 Bft) S-SO 157 14,4 C 22,8 C 0,0 km/h (0 Bft)
01.10.2014 15:30 15,0 C 93 % 1028,1 hPa 0,0 l/m 0,0 km/h (0 Bft) S-SO 157 13,9 C 22,8 C 0,0 km/h (0 Bft)
01.10.2014 15:40 15,0 C 93 % 1028,1 hPa 0,0 l/m 0,0 km/h (0 Bft) S-SO 157 13,9 C 22,8 C 0,0 km/h (0 Bft)
01.10.2014 15:50 15,4 C 93 % 1027,9 hPa 0,0 l/m 0,0 km/h (0 Bft) S-SO 157 14,3 C 22,8 C 0,0 km/h (0 Bft)
01.10.2014 16:00 15,3 C 92 % 1027,9 hPa 0,0 l/m 0,0 km/h (0 Bft) S-SO 157 14,0 C 22,8 C 0,0 km/h (0 Bft)
01.10.2014 16:10 14,7 C 92 % 1028,2 hPa 0,0 l/m 0,0 km/h (0 Bft) S-SO 157 13,4 C 22,8 C 0,0 km/h (0 Bft)
01.10.2014 16:20 14,2 C 92 % 1028,2 hPa 0,0 l/m 0,0 km/h (0 Bft) S-SO 157 12,9 C 22,8 C 0,0 km/h (0 Bft)
01.10.2014 16:30 14,3 C 92 % 1028,1 hPa 0,0 l/m 0,0 km/h (0 Bft) S-SO 157 13,0 C 22,8 C 0,0 km/h (0 Bft)
01.10.2014 16:40 14,5 C 92 % 1028,1 hPa 0,0 l/m 0,0 km/h (0 Bft) S-SO 157 13,2 C 22,8 C 0,0 km/h (0 Bft)
01.10.2014 16:50 14,6 C 93 % 1028,1 hPa 0,0 l/m 0,0 km/h (0 Bft) S-SO 157 13,5 C 22,8 C 0,0 km/h (0 Bft)
01.10.2014 16:58 14,7 C 93 % 1028,1 hPa 0,0 l/m 0,0 km/h (0 Bft) S-SO 157 13,6 C 22,8 C 0,0 km/h (0 Bft)
01.10.2014 17:00 14,6 C 93 % 1028,2 hPa 0,0 l/m 0,0 km/h (0 Bft) S-SO 157 13,5 C 22,8 C 0,0 km/h (0 Bft)
01.10.2014 17:10 14,6 C 93 % 1028,2 hPa 0,0 l/m 0,0 km/h (0 Bft) S-SO 157 13,5 C 22,8 C 0,0 km/h (0 Bft)
01.10.2014 17:20 14,4 C 93 % 1028,1 hPa 0,0 l/m 0,0 km/h (0 Bft) S-SO 157 13,3 C 22,8 C 0,0 km/h (0 Bft)
01.10.2014 17:30 14,4 C 93 % 1028,1 hPa 0,0 l/m 0,0 km/h (0 Bft) S-SO 157 13,3 C 22,8 C 0,0 km/h (0 Bft)
01.10.2014 17:40 14,2 C 93 % 1028,1 hPa 0,0 l/m 0,0 km/h (0 Bft) S-SO 157 13,1 C 22,8 C 0,0 km/h (0 Bft)
01.10.2014 17:50 13,9 C 93 % 1028,1 hPa 0,0 l/m 0,0 km/h (0 Bft) S-SO 157 12,8 C 22,8 C 0,0 km/h (0 Bft)
01.10.2014 18:00 13,7 C 93 % 1028,1 hPa 0,0 l/m 0,0 km/h (0 Bft) S-SO 157 12,6 C 22,8 C 0,0 km/h (0 Bft)
01.10.2014 18:10 13,5 C 93 % 1028,2 hPa 0,0 l/m 0,0 km/h (0 Bft) S-SO 157 12,4 C 22,8 C 0,0 km/h (0 Bft)
01.10.2014 18:20 13,3 C 93 % 1028,2 hPa 0,0 l/m 0,0 km/h (0 Bft) S-SO 157 12,2 C 22,8 C 0,0 km/h (0 Bft)
01.10.2014 18:30 13,1 C 93 % 1028,2 hPa 0,0 l/m 0,0 km/h (0 Bft) S-SO 157 12,0 C 22,8 C 0,0 km/h (0 Bft)
01.10.2014 18:40 12,9 C 94 % 1028,2 hPa 0,0 l/m 0,0 km/h (0 Bft) S-SO 157 12,0 C 22,8 C 0,0 km/h (0 Bft)
01.10.2014 18:50 12,5 C 94 % 1028,3 hPa 0,0 l/m 0,0 km/h (0 Bft) S-SO 157 11,6 C 22,8 C 0,0 km/h (0 Bft)
01.10.2014 19:00 12,3 C 94 % 1028,3 hPa 0,0 l/m 0,0 km/h (0 Bft) S-SO 157 11,4 C 22,8 C 0,0 km/h (0 Bft)
01.10.2014 19:10 12,1 C 94 % 1028,3 hPa 0,0 l/m 0,0 km/h (0 Bft) S-SO 157 11,2 C 22,8 C 0,0 km/h (0 Bft)
01.10.2014 19:20 11,6 C 94 % 1028,3 hPa 0,0 l/m 0,0 km/h (0 Bft) S-SO 157 10,7 C 22,8 C 0,0 km/h (0 Bft)
01.10.2014 19:30 11,4 C 95 % 1028,4 hPa 0,0 l/m 0,0 km/h (0 Bft) S-SO 157 10,6 C 22,8 C 0,0 km/h (0 Bft)
01.10.2014 19:40 11,0 C 95 % 1028,4 hPa 0,0 l/m 0,0 km/h (0 Bft) S-SO 157 10,2 C 22,8 C 0,0 km/h (0 Bft)
01.10.2014 19:50 11,3 C 95 % 1028,5 hPa 0,0 l/m 0,0 km/h (0 Bft) S-SO 157 10,5 C 22,8 C 0,0 km/h (0 Bft)
01.10.2014 19:58 11,7 C 95 % 1028,5 hPa 0,0 l/m 0,0 km/h (0 Bft) S-SO 157 10,9 C 22,8 C 0,0 km/h (0 Bft)
01.10.2014 20:00 12,0 C 95 % 1029,2 hPa 0,0 l/m 0,0 km/h (0 Bft) S-SO 157 11,2 C 22,8 C 0,0 km/h (0 Bft)
01.10.2014 20:10 12,0 C 95 % 1029,2 hPa 0,0 l/m 0,0 km/h (0 Bft) S-SO 157 11,2 C 22,8 C 0,0 km/h (0 Bft)
01.10.2014 20:20 12,1 C 95 % 1028,8 hPa 0,0 l/m 0,0 km/h (0 Bft) S-SO 157 11,3 C 22,8 C 0,0 km/h (0 Bft)
01.10.2014 20:30 12,1 C 95 % 1028,8 hPa 0,0 l/m 0,0 km/h (0 Bft) S-SO 157 11,3 C 22,8 C 0,0 km/h (0 Bft)
01.10.2014 20:40 12,1 C 95 % 1028,8 hPa 0,0 l/m 0,0 km/h (0 Bft) S-SO 157 11,3 C 22,8 C 0,0 km/h (0 Bft)
01.10.2014 20:50 12,2 C 95 % 1028,8 hPa 0,0 l/m 0,0 km/h (0 Bft) S-SO 157 11,4 C 22,8 C 0,0 km/h (0 Bft)
01.10.2014 21:00 12,1 C 95 % 1028,8 hPa 0,0 l/m 0,0 km/h (0 Bft) S-SO 157 11,3 C 22,8 C 0,0 km/h (0 Bft)
01.10.2014 21:10 12,1 C 95 % 1029,1 hPa 0,0 l/m 0,0 km/h (0 Bft) S-SO 157 11,3 C 22,8 C 0,0 km/h (0 Bft)
01.10.2014 21:20 11,9 C 95 % 1029,1 hPa 0,0 l/m 0,0 km/h (0 Bft) S-SO 157 11,1 C 22,8 C 0,0 km/h (0 Bft)
01.10.2014 21:30 11,9 C 95 % 1028,9 hPa 0,0 l/m 0,0 km/h (0 Bft) S-SO 157 11,1 C 22,8 C 0,0 km/h (0 Bft)
01.10.2014 21:40 12,0 C 95 % 1028,9 hPa 0,0 l/m 0,0 km/h (0 Bft) S-SO 157 11,2 C 22,8 C 0,0 km/h (0 Bft)
01.10.2014 21:50 12,0 C 95 % 1029,3 hPa 0,0 l/m 0,0 km/h (0 Bft) S-SO 157 11,2 C 22,8 C 0,0 km/h (0 Bft)
01.10.2014 22:00 12,0 C 95 % 1029,3 hPa 0,0 l/m 0,0 km/h (0 Bft) S-SO 157 11,2 C 22,8 C 0,0 km/h (0 Bft)
01.10.2014 22:10 12,0 C 95 % 1029,4 hPa 0,0 l/m 0,0 km/h (0 Bft) S-SO 157 11,2 C 22,8 C 0,0 km/h (0 Bft)
01.10.2014 22:20 12,0 C 95 % 1029,4 hPa 0,0 l/m 0,0 km/h (0 Bft) S-SO 157 11,2 C 22,8 C 0,0 km/h (0 Bft)
01.10.2014 22:30 11,8 C 96 % 1029,4 hPa 0,0 l/m 0,0 km/h (0 Bft) S-SO 157 11,2 C 22,8 C 0,0 km/h (0 Bft)
01.10.2014 22:40 11,5 C 96 % 1029,4 hPa 0,0 l/m 0,0 km/h (0 Bft) S-SO 157 10,9 C 22,8 C 0,0 km/h (0 Bft)
01.10.2014 22:50 11,7 C 96 % 1029,5 hPa 0,0 l/m 0,0 km/h (0 Bft) S-SO 157 11,1 C 22,8 C 0,0 km/h (0 Bft)
01.10.2014 22:58 11,7 C 96 % 1029,5 hPa 0,0 l/m 0,0 km/h (0 Bft) S-SO 157 11,1 C 22,8 C 0,0 km/h (0 Bft)
01.10.2014 23:00 11,7 C 96 % 1029,6 hPa 0,0 l/m 0,0 km/h (0 Bft) S-SO 157 11,1 C 22,8 C 0,0 km/h (0 Bft)
01.10.2014 23:10 11,6 C 96 % 1029,6 hPa 0,0 l/m 0,0 km/h (0 Bft) S-SO 157 11,0 C 22,8 C 0,0 km/h (0 Bft)
01.10.2014 23:20 11,6 C 96 % 1029,4 hPa 0,0 l/m 0,0 km/h (0 Bft) S-SO 157 11,0 C 22,8 C 0,0 km/h (0 Bft)
01.10.2014 23:30 11,6 C 96 % 1029,4 hPa 0,0 l/m 0,0 km/h (0 Bft) S-SO 157 11,0 C 22,8 C 0,0 km/h (0 Bft)
01.10.2014 23:40 11,4 C 96 % 1029,4 hPa 0,0 l/m 0,0 km/h (0 Bft) S-SO 157 10,8 C 22,8 C 0,0 km/h (0 Bft)
01.10.2014 23:50 11,2 C 96 % 1029,5 hPa 0,0 l/m 0,0 km/h (0 Bft) S-SO 157 10,6 C 22,8 C 0,0 km/h (0 Bft)
_ Min-Zeit 19:40 16:40 07:40 - 23:50 - - 19:40 23:50 23:50
Minimum _ 11,0 C 92 % 1027,2 hPa - 0,0 km/h (0 Bft) - - 10,2 C 22,8 C 0,0 km/h (0 Bft)
_ Max-Zeit 15:50 23:50 23:10 23:50 23:50 - - 15:20 23:50 23:50
Maximum _ 15,4 C 96 % 1029,6 hPa 0,0 l/m 0,0 km/h
S-SO (0 Bft)
- - 14,4 C 22,8 C 0,0 km/h
S-SO (0 Bft)
Durchschnitt _ 12,8 C 95 % 1028,2 hPa #0,0 l/m 0,0 km/h (0 Bft) - - - 12,0 C 22,8 C 0,0 km/h (0 Bft)